• In Hungary
  • List of Countries
  • For 7 days
  • Water Temperature
  • Satellite Maps
  • Weather Map
  • News
  • Weather Widgets
  • user-avatar
    Login

    Hourly Weather Elista

    Today, 21 September, Friday

    Time Temperature Precipitation Wind Pressure Humidity
    00:00 +20°C° 0 mm 2 mps 747 mmHg 43%
    01:00 +19°C° 0 mm 2 mps 747 mmHg 43%
    02:00 +19°C° 0 mm 2 mps 746 mmHg 44%
    03:00 +19°C° 0 mm 2 mps 746 mmHg 45%
    04:00 +18°C° 0 mm 2 mps 746 mmHg 46%
    05:00 +18°C° 0 mm 2 mps 746 mmHg 47%
    06:00 +18°C° 0 mm 3 mps 746 mmHg 48%
    07:00 +20°C° 0 mm 3 mps 747 mmHg 44%
    08:00 +22°C° 0 mm 3 mps 747 mmHg 40%
    09:00 +25°C° 0 mm 3 mps 747 mmHg 36%
    10:00 +26°C° 0 mm 3 mps 747 mmHg 34%
    11:00 +27°C° 0 mm 3 mps 747 mmHg 33%
    12:00 +29°C° 0 mm 3 mps 747 mmHg 31%
    13:00 +29°C° 0 mm 3 mps 747 mmHg 30%
    14:00 +29°C° 0 mm 3 mps 747 mmHg 29%
    15:00 +30°C° 0 mm 3 mps 746 mmHg 28%
    16:00 +29°C° 0 mm 3 mps 746 mmHg 31%
    17:00 +28°C° 0 mm 2 mps 746 mmHg 33%
    18:00 +26°C° 0 mm 2 mps 746 mmHg 36%
    19:00 +26°C° 0 mm 2 mps 747 mmHg 38%
    20:00 +25°C° 0 mm 3 mps 747 mmHg 39%
    21:00 +24°C° 0 mm 3 mps 747 mmHg 41%
    22:00 +22°C° 0 mm 3 mps 747 mmHg 43%
    23:00 +22°C° 0 mm 3 mps 747 mmHg 45%

    Tomorrow, 22 September, Saturday

    Time Temperature Precipitation Wind Pressure Humidity
    00:00 +21°C° 0 mm 4 mps 747 mmHg 48%
    01:00 +21°C° 0 mm 4 mps 748 mmHg 51%
    02:00 +20°C° 0 mm 4 mps 748 mmHg 54%
    03:00 +20°C° 0 mm 4 mps 748 mmHg 58%
    04:00 +19°C° 0 mm 4 mps 748 mmHg 60%
    05:00 +19°C° 0 mm 4 mps 748 mmHg 63%
    06:00 +18°C° 0 mm 4 mps 748 mmHg 65%
    07:00 +20°C° 0 mm 4 mps 748 mmHg 60%
    08:00 +21°C° 0 mm 5 mps 749 mmHg 56%
    09:00 +23°C° 0 mm 5 mps 749 mmHg 51%
    10:00 +25°C° 0 mm 5 mps 749 mmHg 47%
    11:00 +26°C° 0 mm 5 mps 749 mmHg 42%
    12:00 +27°C° 0 mm 5 mps 748 mmHg 37%
    13:00 +28°C° 0 mm 5 mps 748 mmHg 36%
    14:00 +28°C° 0 mm 5 mps 748 mmHg 34%
    15:00 +29°C° 0 mm 5 mps 747 mmHg 32%
    16:00 +28°C° 0 mm 5 mps 747 mmHg 34%
    17:00 +27°C° 0 mm 4 mps 747 mmHg 36%
    18:00 +26°C° 0 mm 3 mps 747 mmHg 38%
    19:00 +25°C° 0 mm 4 mps 747 mmHg 40%
    20:00 +23°C° 0 mm 4 mps 747 mmHg 42%
    21:00 +22°C° 0 mm 4 mps 748 mmHg 44%
    22:00 +22°C° 0 mm 4 mps 748 mmHg 49%
    23:00 +21°C° 0 mm 4 mps 747 mmHg 55%

    Day after tomorrow, 23 September, Sunday

    Time Temperature Precipitation Wind Pressure Humidity
    00:00 +20°C° 0 mm 4 mps 747 mmHg 60%
    01:00 +19°C° 0 mm 4 mps 747 mmHg 64%
    02:00 +19°C° 0 mm 4 mps 747 mmHg 68%
    03:00 +18°C° 0 mm 4 mps 747 mmHg 72%
    04:00 +18°C° 0 mm 4 mps 747 mmHg 74%
    05:00 +17°C° 0 mm 4 mps 747 mmHg 76%
    06:00 +17°C° 0 mm 4 mps 747 mmHg 77%
    07:00 +18°C° 0 mm 4 mps 747 mmHg 71%
    08:00 +20°C° 0 mm 4 mps 747 mmHg 65%
    09:00 +21°C° 0 mm 5 mps 747 mmHg 59%
    10:00 +23°C° 0 mm 5 mps 746 mmHg 52%
    11:00 +25°C° 0 mm 5 mps 746 mmHg 46%
    12:00 +27°C° 0 mm 5 mps 745 mmHg 40%
    13:00 +28°C° 0 mm 5 mps 745 mmHg 37%
    14:00 +28°C° 0 mm 5 mps 744 mmHg 34%
    15:00 +29°C° 0 mm 5 mps 744 mmHg 32%
    16:00 +28°C° 0 mm 5 mps 744 mmHg 35%
    17:00 +27°C° 0 mm 4 mps 743 mmHg 39%
    18:00 +26°C° 0 mm 4 mps 743 mmHg 43%
    19:00 +25°C° 0 mm 4 mps 743 mmHg 48%
    20:00 +25°C° 0 mm 5 mps 743 mmHg 54%
    21:00 +23°C° 0 mm 5 mps 743 mmHg 59%
    22:00 +22°C° 0.8 mm 6 mps 743 mmHg 63%
    23:00 +21°C° 0.8 mm 7 mps 743 mmHg 67%

    24 September, Monday

    Time Temperature Precipitation Wind Pressure Humidity
    00:00 +20°C° 0.8 mm 7 mps 743 mmHg 71%
    01:00 +18°C° 0.5 mm 7 mps 743 mmHg 72%
    02:00 +18°C° 0.5 mm 8 mps 743 mmHg 73%
    03:00 +17°C° 0.5 mm 8 mps 743 mmHg 74%
    04:00 +16°C° 0.1 mm 8 mps 744 mmHg 70%
    05:00 +13°C° 0.1 mm 9 mps 745 mmHg 67%
    06:00 +12°C° 0.1 mm 9 mps 745 mmHg 63%
    07:00 +12°C° 0 mm 9 mps 746 mmHg 59%
    08:00 +13°C° 0 mm 9 mps 746 mmHg 55%
    09:00 +15°C° 0 mm 9 mps 747 mmHg 51%
    10:00 +16°C° 0 mm 9 mps 747 mmHg 46%
    11:00 +17°C° 0 mm 9 mps 747 mmHg 40%
    12:00 +18°C° 0 mm 9 mps 747 mmHg 34%
    13:00 +19°C° 0 mm 9 mps 746 mmHg 33%
    14:00 +20°C° 0 mm 8 mps 746 mmHg 32%
    15:00 +21°C° 0 mm 8 mps 746 mmHg 31%
    16:00 +20°C° 0 mm 6 mps 746 mmHg 33%
    17:00 +19°C° 0 mm 5 mps 746 mmHg 34%
    18:00 +18°C° 0 mm 4 mps 746 mmHg 36%
    19:00 +18°C° 0 mm 3 mps 746 mmHg 38%
    20:00 +17°C° 0 mm 3 mps 746 mmHg 40%
    21:00 +16°C° 0 mm 2 mps 746 mmHg 41%
    22:00 +16°C° 0 mm 2 mps 746 mmHg 42%
    23:00 +15°C° 0 mm 2 mps 745 mmHg 44%

    25 September, Tuesday

    Time Temperature Precipitation Wind Pressure Humidity
    00:00 +15°C° 0 mm 2 mps 745 mmHg 45%
    01:00 +14°C° 0 mm 2 mps 745 mmHg 46%
    02:00 +14°C° 0 mm 2 mps 745 mmHg 47%
    03:00 +13°C° 0 mm 1 mps 744 mmHg 48%
    04:00 +13°C° 0 mm 1 mps 744 mmHg 49%
    05:00 +13°C° 0 mm 1 mps 744 mmHg 51%
    06:00 +12°C° 0 mm 1 mps 744 mmHg 52%
    07:00 +14°C° 0 mm 1 mps 744 mmHg 46%
    08:00 +16°C° 0 mm 2 mps 744 mmHg 41%
    09:00 +18°C° 0 mm 2 mps 744 mmHg 36%
    10:00 +20°C° 0 mm 3 mps 744 mmHg 33%
    11:00 +21°C° 0 mm 3 mps 744 mmHg 29%
    12:00 +22°C° 0 mm 3 mps 743 mmHg 26%
    13:00 +24°C° 0 mm 3 mps 743 mmHg 25%
    14:00 +24°C° 0 mm 3 mps 743 mmHg 23%
    15:00 +25°C° 0 mm 3 mps 742 mmHg 22%
    16:00 +24°C° 0 mm 3 mps 742 mmHg 24%
    17:00 +22°C° 0 mm 3 mps 742 mmHg 26%
    18:00 +21°C° 0 mm 3 mps 742 mmHg 28%
    19:00 +21°C° 0 mm 3 mps 742 mmHg 29%
    20:00 +20°C° 0 mm 4 mps 743 mmHg 31%
    21:00 +19°C° 0 mm 4 mps 743 mmHg 33%
    22:00 +19°C° 0 mm 5 mps 743 mmHg 39%
    23:00 +17°C° 0 mm 5 mps 744 mmHg 46%

    26 September, Wednesday

    Time Temperature Precipitation Wind Pressure Humidity
    00:00 +16°C° 0 mm 6 mps 744 mmHg 52%
    01:00 +15°C° 0 mm 5 mps 744 mmHg 57%
    02:00 +14°C° 0 mm 5 mps 745 mmHg 63%
    03:00 +13°C° 0 mm 5 mps 745 mmHg 68%
    04:00 +13°C° 0 mm 4 mps 746 mmHg 68%
    05:00 +13°C° 0 mm 4 mps 746 mmHg 67%
    06:00 +12°C° 0 mm 4 mps 747 mmHg 67%
    07:00 +13°C° 0 mm 4 mps 747 mmHg 64%
    08:00 +14°C° 0 mm 4 mps 748 mmHg 61%
    09:00 +15°C° 0 mm 4 mps 748 mmHg 58%
    10:00 +15°C° 0 mm 4 mps 748 mmHg 56%
    11:00 +15°C° 0 mm 4 mps 748 mmHg 54%
    12:00 +17°C° 0 mm 4 mps 749 mmHg 52%
    13:00 +17°C° 0 mm 4 mps 749 mmHg 50%
    14:00 +17°C° 0 mm 4 mps 749 mmHg 48%
    15:00 +17°C° 0 mm 4 mps 749 mmHg 46%
    16:00 +15°C° 0.1 mm 4 mps 749 mmHg 49%
    17:00 +14°C° 0.1 mm 4 mps 749 mmHg 52%
    18:00 +13°C° 0.1 mm 4 mps 750 mmHg 55%
    19:00 +13°C° 0 mm 4 mps 750 mmHg 55%
    20:00 +13°C° 0 mm 4 mps 750 mmHg 56%
    21:00 +13°C° 0 mm 4 mps 751 mmHg 56%
    22:00 +12°C° 0 mm 4 mps 751 mmHg 55%
    23:00 +12°C° 0 mm 4 mps 751 mmHg 55%
    Show more